User: anonymous   Login
Location: Caltech
(34.1382°N, 118.1253°W)
Time: 02:56:18
(UTC-08:00)
Language:

Gurwin Techsat 1B - Orbit

View from above orbital plane
View from above orbital plane
View from above satellite
View from above satellite

Ground track
Ground track

The orbit data is extracted from the following two-line orbital elements,

1 25397U 98043D   15028.93106641  .00000068  00000-0  48433-4 0  5543
2 25397 098.5028 343.8753 0001777 055.0216 346.0081 14.23510961859987
Epoch (UTC): 28 January 2015 22:20:44
Eccentricity: 0.0001777
inclination: 98.5028°
perigee height: 812 km
apogee height: 815 km
right ascension of ascending node: 343.8753°
argument of perigee: 55.0216°
revolutions per day: 14.23510961
mean anomaly at epoch: 346.0081°
orbit number at epoch: 85998

The dashed part of the orbit path shows where the satellite is in the earth's shadow,  

DLR